Year,Month,Day,Hour,Minute,Value (Times are PST for temperature in C)
2016,04,01,00,00,9.60
2016,04,01,00,01,9.60
2016,04,01,00,02,9.60
2016,04,01,00,03,9.60
2016,04,01,00,04,9.60
2016,04,01,00,05,9.60
2016,04,01,00,06,9.60
2016,04,01,00,07,9.60
2016,04,01,00,08,9.60
2016,04,01,00,09,9.60
2016,04,01,00,10,9.60
2016,04,01,00,11,9.50
2016,04,01,00,12,9.50
2016,04,01,00,13,9.50
2016,04,01,00,14,9.50
2016,04,01,00,15,9.50
2016,04,01,00,16,9.40
2016,04,01,00,17,9.40
2016,04,01,00,18,9.40
2016,04,01,00,19,9.40
2016,04,01,00,20,9.40
2016,04,01,00,21,9.40
2016,04,01,00,22,9.40
2016,04,01,00,23,9.40
2016,04,01,00,24,9.40
2016,04,01,00,25,9.40
2016,04,01,00,26,9.40
2016,04,01,00,27,9.50
2016,04,01,00,28,9.50
2016,04,01,00,29,9.50
2016,04,01,00,30,9.50
2016,04,01,00,31,9.40
2016,04,01,00,32,9.40
2016,04,01,00,33,9.40
2016,04,01,00,34,9.40
2016,04,01,00,35,9.40
2016,04,01,00,36,9.40
2016,04,01,00,37,9.40
2016,04,01,00,38,9.40
2016,04,01,00,39,9.30
2016,04,01,00,40,9.30
2016,04,01,00,41,9.30
2016,04,01,00,42,9.30
2016,04,01,00,43,9.30
2016,04,01,00,44,9.30
2016,04,01,00,45,9.30
2016,04,01,00,46,9.30
2016,04,01,00,47,9.30
2016,04,01,00,48,9.30
2016,04,01,00,49,9.30
2016,04,01,00,50,9.30
2016,04,01,00,51,9.30
2016,04,01,00,52,9.30
2016,04,01,00,53,9.30
2016,04,01,00,54,9.30
2016,04,01,00,55,9.20
2016,04,01,00,56,9.20
2016,04,01,00,57,9.20
2016,04,01,00,58,9.20
2016,04,01,00,59,9.20
2016,04,01,01,00,9.20
2016,04,01,01,01,9.20
2016,04,01,01,02,9.20
2016,04,01,01,03,9.20
2016,04,01,01,04,9.20
2016,04,01,01,05,9.20
2016,04,01,01,06,9.10
2016,04,01,01,07,9.10
2016,04,01,01,08,9.10
2016,04,01,01,09,9.10
2016,04,01,01,10,9.10
2016,04,01,01,11,9.10
2016,04,01,01,12,9.10
2016,04,01,01,13,9.00
2016,04,01,01,14,9.00
2016,04,01,01,15,9.00
2016,04,01,01,16,9.00
2016,04,01,01,17,9.00
2016,04,01,01,18,8.90
2016,04,01,01,19,8.90
2016,04,01,01,20,8.90
2016,04,01,01,21,8.90
2016,04,01,01,22,8.90
2016,04,01,01,23,8.90
2016,04,01,01,24,8.90
2016,04,01,01,25,8.90
2016,04,01,01,26,8.90
2016,04,01,01,27,8.90
2016,04,01,01,28,8.90
2016,04,01,01,29,8.90
2016,04,01,01,30,8.90
2016,04,01,01,31,8.90
2016,04,01,01,32,8.80
2016,04,01,01,33,8.80
2016,04,01,01,34,8.80
2016,04,01,01,35,8.80
2016,04,01,01,36,8.80
2016,04,01,01,37,8.80
2016,04,01,01,38,8.80
2016,04,01,01,39,8.80
2016,04,01,01,40,8.80
2016,04,01,01,41,8.80
2016,04,01,01,42,8.80
2016,04,01,01,43,8.80
2016,04,01,01,44,8.80
2016,04,01,01,45,8.80
2016,04,01,01,46,8.80
2016,04,01,01,47,8.80
2016,04,01,01,48,8.80
2016,04,01,01,49,8.80
2016,04,01,01,50,8.80
2016,04,01,01,51,8.80
2016,04,01,01,52,8.80
2016,04,01,01,53,8.70
2016,04,01,01,54,8.70
2016,04,01,01,55,8.70
2016,04,01,01,56,8.70
2016,04,01,01,57,8.70
2016,04,01,01,58,8.70
2016,04,01,01,59,8.70
2016,04,01,02,00,8.70
2016,04,01,02,01,8.70
2016,04,01,02,02,8.70
2016,04,01,02,03,8.70
2016,04,01,02,04,8.70
2016,04,01,02,05,8.70
2016,04,01,02,06,8.70
2016,04,01,02,07,8.70
2016,04,01,02,08,8.70
2016,04,01,02,09,8.70
2016,04,01,02,10,8.60
2016,04,01,02,11,8.60
2016,04,01,02,12,8.60
2016,04,01,02,13,8.60
2016,04,01,02,14,8.60
2016,04,01,02,15,8.60
2016,04,01,02,16,8.60
2016,04,01,02,17,8.60
2016,04,01,02,18,8.60
2016,04,01,02,19,8.60
2016,04,01,02,20,8.50
2016,04,01,02,21,8.50
2016,04,01,02,22,8.50
2016,04,01,02,23,8.50
2016,04,01,02,24,8.60
2016,04,01,02,25,8.60
2016,04,01,02,26,8.60
2016,04,01,02,27,8.60
2016,04,01,02,28,8.60
2016,04,01,02,29,8.60
2016,04,01,02,30,8.60
2016,04,01,02,31,8.50
2016,04,01,02,32,8.50
2016,04,01,02,33,8.50
2016,04,01,02,34,8.50
2016,04,01,02,35,8.40
2016,04,01,02,36,8.40
2016,04,01,02,37,8.40
2016,04,01,02,38,8.40
2016,04,01,02,39,8.40
2016,04,01,02,40,8.30
2016,04,01,02,41,8.30
2016,04,01,02,42,8.30
2016,04,01,02,43,8.30
2016,04,01,02,44,8.30
2016,04,01,02,45,8.30
2016,04,01,02,46,8.30
2016,04,01,02,47,8.30
2016,04,01,02,48,8.30
2016,04,01,02,49,8.20
2016,04,01,02,50,8.20
2016,04,01,02,51,8.20
2016,04,01,02,52,8.20
2016,04,01,02,53,8.20
2016,04,01,02,54,8.20
2016,04,01,02,55,8.20
2016,04,01,02,56,8.20
2016,04,01,02,57,8.20
2016,04,01,02,58,8.20
2016,04,01,02,59,8.20
2016,04,01,03,00,8.20
2016,04,01,03,01,8.20
2016,04,01,03,02,8.20
2016,04,01,03,03,8.20
2016,04,01,03,04,8.20
2016,04,01,03,05,8.20
2016,04,01,03,06,8.20
2016,04,01,03,07,8.30
2016,04,01,03,08,8.30
2016,04,01,03,09,8.30
2016,04,01,03,10,8.30
2016,04,01,03,11,8.30
2016,04,01,03,12,8.30
2016,04,01,03,13,8.30
2016,04,01,03,14,8.30
2016,04,01,03,15,8.30
2016,04,01,03,16,8.30
2016,04,01,03,17,8.30
2016,04,01,03,18,8.30
2016,04,01,03,19,8.30
2016,04,01,03,20,8.30
2016,04,01,03,21,8.30
2016,04,01,03,22,8.30
2016,04,01,03,23,8.30
2016,04,01,03,24,8.30
2016,04,01,03,25,8.30
2016,04,01,03,26,8.30
2016,04,01,03,27,8.30
2016,04,01,03,28,8.30
2016,04,01,03,29,8.30
2016,04,01,03,30,8.30
2016,04,01,03,31,8.30
2016,04,01,03,32,8.30
2016,04,01,03,33,8.20
2016,04,01,03,34,8.20
2016,04,01,03,35,8.20
2016,04,01,03,36,8.20
2016,04,01,03,37,8.10
2016,04,01,03,38,8.10
2016,04,01,03,39,8.10
2016,04,01,03,40,8.00
2016,04,01,03,41,8.00
2016,04,01,03,42,8.00
2016,04,01,03,43,8.00
2016,04,01,03,44,8.00
2016,04,01,03,45,7.90
2016,04,01,03,46,7.90
2016,04,01,03,47,7.90
2016,04,01,03,48,7.90
2016,04,01,03,49,7.90
2016,04,01,03,50,7.90
2016,04,01,03,51,8.00
2016,04,01,03,52,8.00
2016,04,01,03,53,8.00
2016,04,01,03,54,8.00
2016,04,01,03,55,7.90
2016,04,01,03,56,7.90
2016,04,01,03,57,7.90
2016,04,01,03,58,7.90
2016,04,01,03,59,7.90
2016,04,01,04,00,7.80
2016,04,01,04,01,7.80
2016,04,01,04,02,7.80
2016,04,01,04,03,7.80
2016,04,01,04,04,7.80
2016,04,01,04,05,7.80
2016,04,01,04,06,7.80
2016,04,01,04,07,7.80
2016,04,01,04,08,7.80
2016,04,01,04,09,7.80
2016,04,01,04,10,7.80
2016,04,01,04,11,7.80
2016,04,01,04,12,7.80
2016,04,01,04,13,7.80
2016,04,01,04,14,7.80
2016,04,01,04,15,7.80
2016,04,01,04,16,7.80
2016,04,01,04,17,7.80
2016,04,01,04,18,7.80
2016,04,01,04,19,7.70
2016,04,01,04,20,7.70
2016,04,01,04,21,7.70
2016,04,01,04,22,7.80
2016,04,01,04,23,7.80
2016,04,01,04,24,7.80
2016,04,01,04,25,7.80
2016,04,01,04,26,7.70
2016,04,01,04,27,7.70
2016,04,01,04,28,7.70
2016,04,01,04,29,7.70
2016,04,01,04,30,7.70
2016,04,01,04,31,7.70
2016,04,01,04,32,7.70
2016,04,01,04,33,7.70
2016,04,01,04,34,7.70
2016,04,01,04,35,7.70
2016,04,01,04,36,7.70
2016,04,01,04,37,7.70
2016,04,01,04,38,7.70
2016,04,01,04,39,7.70
2016,04,01,04,40,7.60
2016,04,01,04,41,7.60
2016,04,01,04,42,7.60
2016,04,01,04,43,7.60
2016,04,01,04,44,7.60
2016,04,01,04,45,7.60
2016,04,01,04,46,7.60
2016,04,01,04,47,7.60
2016,04,01,04,48,7.60
2016,04,01,04,49,7.60
2016,04,01,04,50,7.60
2016,04,01,04,51,7.60
2016,04,01,04,52,7.60
2016,04,01,04,53,7.60
2016,04,01,04,54,7.60
2016,04,01,04,55,7.60
2016,04,01,04,56,7.60
2016,04,01,04,57,7.60
2016,04,01,04,58,7.60
2016,04,01,04,59,7.60
2016,04,01,05,00,7.60
2016,04,01,05,01,7.70
2016,04,01,05,02,7.70
2016,04,01,05,03,7.70
2016,04,01,05,04,7.60
2016,04,01,05,05,7.60
2016,04,01,05,06,7.60
2016,04,01,05,07,7.60
2016,04,01,05,08,7.60
2016,04,01,05,09,7.60
2016,04,01,05,10,7.60
2016,04,01,05,11,7.60
2016,04,01,05,12,7.70
2016,04,01,05,13,7.70
2016,04,01,05,14,7.70
2016,04,01,05,15,7.70
2016,04,01,05,16,7.70
2016,04,01,05,17,7.80
2016,04,01,05,18,7.80
2016,04,01,05,19,7.80
2016,04,01,05,20,7.80
2016,04,01,05,21,7.80
2016,04,01,05,22,7.80
2016,04,01,05,23,7.70
2016,04,01,05,24,7.70
2016,04,01,05,25,7.70
2016,04,01,05,26,7.60
2016,04,01,05,27,7.60
2016,04,01,05,28,7.60
2016,04,01,05,29,7.60
2016,04,01,05,30,7.60
2016,04,01,05,31,7.60
2016,04,01,05,32,7.60
2016,04,01,05,33,7.60
2016,04,01,05,34,7.50
2016,04,01,05,35,7.50
2016,04,01,05,36,7.40
2016,04,01,05,37,7.40
2016,04,01,05,38,7.40
2016,04,01,05,39,7.40
2016,04,01,05,40,7.30
2016,04,01,05,41,7.30
2016,04,01,05,42,7.30
2016,04,01,05,43,7.30
2016,04,01,05,44,7.30
2016,04,01,05,45,7.30
2016,04,01,05,46,7.30
2016,04,01,05,47,7.20
2016,04,01,05,48,7.20
2016,04,01,05,49,7.20
2016,04,01,05,50,7.20
2016,04,01,05,51,7.30
2016,04,01,05,52,7.30
2016,04,01,05,53,7.30
2016,04,01,05,54,7.20
2016,04,01,05,55,7.20
2016,04,01,05,56,7.20
2016,04,01,05,57,7.20
2016,04,01,05,58,7.20
2016,04,01,05,59,7.20
2016,04,01,06,00,7.20
2016,04,01,06,01,7.20
2016,04,01,06,02,7.20
2016,04,01,06,03,7.20
2016,04,01,06,04,7.20
2016,04,01,06,05,7.20
2016,04,01,06,06,7.20
2016,04,01,06,07,7.20
2016,04,01,06,08,7.20
2016,04,01,06,09,7.20
2016,04,01,06,10,7.20
2016,04,01,06,11,7.20
2016,04,01,06,12,7.20
2016,04,01,06,13,7.20
2016,04,01,06,14,7.20
2016,04,01,06,15,7.20
2016,04,01,06,16,7.20
2016,04,01,06,17,7.20
2016,04,01,06,18,7.20
2016,04,01,06,19,7.20
2016,04,01,06,20,7.20
2016,04,01,06,21,7.20
2016,04,01,06,22,7.20
2016,04,01,06,23,7.20
2016,04,01,06,24,7.20
2016,04,01,06,25,7.20
2016,04,01,06,26,7.10
2016,04,01,06,27,7.10
2016,04,01,06,28,7.10
2016,04,01,06,29,7.10
2016,04,01,06,30,7.10
2016,04,01,06,31,7.00
2016,04,01,06,32,7.00
2016,04,01,06,33,7.00
2016,04,01,06,34,7.10
2016,04,01,06,35,7.10
2016,04,01,06,36,7.10
2016,04,01,06,37,7.20
2016,04,01,06,38,7.20
2016,04,01,06,39,7.20
2016,04,01,06,40,7.20
2016,04,01,06,41,7.20
2016,04,01,06,42,7.10
2016,04,01,06,43,7.10
2016,04,01,06,44,7.10
2016,04,01,06,45,7.00
2016,04,01,06,46,7.00
2016,04,01,06,47,7.00
2016,04,01,06,48,6.90
2016,04,01,06,49,6.90
2016,04,01,06,50,6.90
2016,04,01,06,51,7.00
2016,04,01,06,52,7.00
2016,04,01,06,53,7.10
2016,04,01,06,54,7.10
2016,04,01,06,55,7.00
2016,04,01,06,56,7.00
2016,04,01,06,57,7.00
2016,04,01,06,58,6.90
2016,04,01,06,59,6.90
2016,04,01,07,00,6.90
2016,04,01,07,01,6.90
2016,04,01,07,02,6.90
2016,04,01,07,03,6.90
2016,04,01,07,04,6.90
2016,04,01,07,05,6.90
2016,04,01,07,06,6.80
2016,04,01,07,07,6.80
2016,04,01,07,08,6.80
2016,04,01,07,09,6.80
2016,04,01,07,10,6.80
2016,04,01,07,11,6.80
2016,04,01,07,12,6.80
2016,04,01,07,13,6.70
2016,04,01,07,14,6.70
2016,04,01,07,15,6.70
2016,04,01,07,16,6.70
2016,04,01,07,17,6.70
2016,04,01,07,18,6.70
2016,04,01,07,19,6.70
2016,04,01,07,20,6.80
2016,04,01,07,21,6.80
2016,04,01,07,22,6.80
2016,04,01,07,23,6.80
2016,04,01,07,24,6.80
2016,04,01,07,25,6.80
2016,04,01,07,26,6.80
2016,04,01,07,27,6.80
2016,04,01,07,28,6.80
2016,04,01,07,29,6.90
2016,04,01,07,30,6.90
2016,04,01,07,31,6.90
2016,04,01,07,32,6.90
2016,04,01,07,33,6.90
2016,04,01,07,34,6.90
2016,04,01,07,35,7.00
2016,04,01,07,36,7.00
2016,04,01,07,37,7.10
2016,04,01,07,38,7.10
2016,04,01,07,39,7.20
2016,04,01,07,40,7.20
2016,04,01,07,41,7.20
2016,04,01,07,42,7.20
2016,04,01,07,43,7.20
2016,04,01,07,44,7.30
2016,04,01,07,45,7.30
2016,04,01,07,46,7.40
2016,04,01,07,47,7.40
2016,04,01,07,48,7.50
2016,04,01,07,49,7.50
2016,04,01,07,50,7.60
2016,04,01,07,51,7.60
2016,04,01,07,52,7.70
2016,04,01,07,53,7.70
2016,04,01,07,54,7.80
2016,04,01,07,55,7.80
2016,04,01,07,56,7.80
2016,04,01,07,57,7.80
2016,04,01,07,58,7.90
2016,04,01,07,59,7.90
2016,04,01,08,00,8.00
2016,04,01,08,01,8.10
2016,04,01,08,02,8.10
2016,04,01,08,03,8.20
2016,04,01,08,04,8.30
2016,04,01,08,05,8.30
2016,04,01,08,06,8.30
2016,04,01,08,07,8.40
2016,04,01,08,08,8.50
2016,04,01,08,09,8.60
2016,04,01,08,10,8.70
2016,04,01,08,11,8.80
2016,04,01,08,12,8.80
2016,04,01,08,13,8.90
2016,04,01,08,14,8.90
2016,04,01,08,15,9.00
2016,04,01,08,16,9.00
2016,04,01,08,17,9.00
2016,04,01,08,18,9.00
2016,04,01,08,19,9.00
2016,04,01,08,20,9.00
2016,04,01,08,21,9.10
2016,04,01,08,22,9.10
2016,04,01,08,23,9.10
2016,04,01,08,24,9.10
2016,04,01,08,25,9.10
2016,04,01,08,26,9.20
2016,04,01,08,27,9.20
2016,04,01,08,28,9.30
2016,04,01,08,29,9.30
2016,04,01,08,30,9.40
2016,04,01,08,31,9.40
2016,04,01,08,32,9.50
2016,04,01,08,33,9.70
2016,04,01,08,34,9.80
2016,04,01,08,35,10.00
2016,04,01,08,36,10.20
2016,04,01,08,37,10.30
2016,04,01,08,38,10.40
2016,04,01,08,39,10.50
2016,04,01,08,40,10.60
2016,04,01,08,41,10.60
2016,04,01,08,42,10.60
2016,04,01,08,43,10.70
2016,04,01,08,44,10.70
2016,04,01,08,45,10.80
2016,04,01,08,46,10.80
2016,04,01,08,47,10.80
2016,04,01,08,48,10.80
2016,04,01,08,49,10.90
2016,04,01,08,50,10.90
2016,04,01,08,51,11.00
2016,04,01,08,52,11.00
2016,04,01,08,53,11.10
2016,04,01,08,54,11.20
2016,04,01,08,55,11.30
2016,04,01,08,56,11.40
2016,04,01,08,57,11.40
2016,04,01,08,58,11.50
2016,04,01,08,59,11.60
2016,04,01,09,00,11.70
2016,04,01,09,01,11.70
2016,04,01,09,02,11.70
2016,04,01,09,03,11.70
2016,04,01,09,04,11.60
2016,04,01,09,05,11.60
2016,04,01,09,06,11.50
2016,04,01,09,07,11.50
2016,04,01,09,08,11.40
2016,04,01,09,09,11.40
2016,04,01,09,10,11.40
2016,04,01,09,11,11.30
2016,04,01,09,12,11.20
2016,04,01,09,13,11.10
2016,04,01,09,14,11.10
2016,04,01,09,15,11.00
2016,04,01,09,16,11.10
2016,04,01,09,17,11.10
2016,04,01,09,18,11.20
2016,04,01,09,19,11.20
2016,04,01,09,20,11.20
2016,04,01,09,21,11.30
2016,04,01,09,22,11.40
2016,04,01,09,23,11.40
2016,04,01,09,24,11.60
2016,04,01,09,25,11.70
2016,04,01,09,26,11.70
2016,04,01,09,27,11.60
2016,04,01,09,28,11.60
2016,04,01,09,29,11.60
2016,04,01,09,30,11.60
2016,04,01,09,31,11.60
2016,04,01,09,32,11.70
2016,04,01,09,33,11.80
2016,04,01,09,34,11.90
2016,04,01,09,35,11.90
2016,04,01,09,36,12.00
2016,04,01,09,37,12.00
2016,04,01,09,38,12.10
2016,04,01,09,39,12.10
2016,04,01,09,40,12.10
2016,04,01,09,41,12.20
2016,04,01,09,42,12.20
2016,04,01,09,43,12.20
2016,04,01,09,44,12.20
2016,04,01,09,45,12.10
2016,04,01,09,46,12.10
2016,04,01,09,47,12.10
2016,04,01,09,48,12.00
2016,04,01,09,49,12.00
2016,04,01,09,50,11.90
2016,04,01,09,51,11.80
2016,04,01,09,52,11.80
2016,04,01,09,53,11.80
2016,04,01,09,54,11.80
2016,04,01,09,55,11.90
2016,04,01,09,56,12.00
2016,04,01,09,57,12.00
2016,04,01,09,58,12.00
2016,04,01,09,59,11.90
2016,04,01,10,00,11.90
2016,04,01,10,01,11.90
2016,04,01,10,02,11.80
2016,04,01,10,03,11.70
2016,04,01,10,04,11.60
2016,04,01,10,05,11.50
2016,04,01,10,06,11.50
2016,04,01,10,07,11.40
2016,04,01,10,08,11.40
2016,04,01,10,09,11.50
2016,04,01,10,10,11.60
2016,04,01,10,11,11.60
2016,04,01,10,12,11.70
2016,04,01,10,13,11.70
2016,04,01,10,14,11.70
2016,04,01,10,15,11.70
2016,04,01,10,16,11.70
2016,04,01,10,17,11.70
2016,04,01,10,18,11.80
2016,04,01,10,19,11.80
2016,04,01,10,20,11.80
2016,04,01,10,21,11.80
2016,04,01,10,22,11.90
2016,04,01,10,23,11.90
2016,04,01,10,24,11.90
2016,04,01,10,25,12.00
2016,04,01,10,26,12.00
2016,04,01,10,27,12.00
2016,04,01,10,28,12.00
2016,04,01,10,29,12.10
2016,04,01,10,30,12.10
2016,04,01,10,31,12.20
2016,04,01,10,32,12.10
2016,04,01,10,33,12.10
2016,04,01,10,34,12.00
2016,04,01,10,35,12.00
2016,04,01,10,36,12.00
2016,04,01,10,37,12.00
2016,04,01,10,38,12.10
2016,04,01,10,39,12.20
2016,04,01,10,40,12.20
2016,04,01,10,41,12.10
2016,04,01,10,42,12.20
2016,04,01,10,43,12.20
2016,04,01,10,44,12.30
2016,04,01,10,45,12.30
2016,04,01,10,46,12.30
2016,04,01,10,47,12.30
2016,04,01,10,48,12.30
2016,04,01,10,49,12.40
2016,04,01,10,50,12.40
2016,04,01,10,51,12.40
2016,04,01,10,52,12.50
2016,04,01,10,53,12.50
2016,04,01,10,54,12.60
2016,04,01,10,55,12.60
2016,04,01,10,56,12.60
2016,04,01,10,57,12.60
2016,04,01,10,58,12.50
2016,04,01,10,59,12.50
2016,04,01,11,00,12.50
2016,04,01,11,01,12.50
2016,04,01,11,02,12.50
2016,04,01,11,03,12.60
2016,04,01,11,04,12.60
2016,04,01,11,05,12.70
2016,04,01,11,06,12.90
2016,04,01,11,07,12.90
2016,04,01,11,08,12.90
2016,04,01,11,09,12.80
2016,04,01,11,10,12.80
2016,04,01,11,11,12.80
2016,04,01,11,12,12.80
2016,04,01,11,13,12.90
2016,04,01,11,14,13.00
2016,04,01,11,15,13.10
2016,04,01,11,16,13.10
2016,04,01,11,17,13.10
2016,04,01,11,18,13.20
2016,04,01,11,19,13.30
2016,04,01,11,20,13.40
2016,04,01,11,21,13.40
2016,04,01,11,22,13.30
2016,04,01,11,23,13.40
2016,04,01,11,24,13.40
2016,04,01,11,25,13.30
2016,04,01,11,26,13.20
2016,04,01,11,27,13.20
2016,04,01,11,28,13.30
2016,04,01,11,29,13.40
2016,04,01,11,30,13.40
2016,04,01,11,31,13.40
2016,04,01,11,32,13.50
2016,04,01,11,33,13.60
2016,04,01,11,34,13.70
2016,04,01,11,35,13.70
2016,04,01,11,36,13.80
2016,04,01,11,37,13.80
2016,04,01,11,38,13.80
2016,04,01,11,39,13.90
2016,04,01,11,40,13.90
2016,04,01,11,41,14.00
2016,04,01,11,42,14.10
2016,04,01,11,43,14.10
2016,04,01,11,44,14.10
2016,04,01,11,45,14.10
2016,04,01,11,46,14.10
2016,04,01,11,47,14.20
2016,04,01,11,48,14.30
2016,04,01,11,49,14.30
2016,04,01,11,50,14.30
2016,04,01,11,51,14.20
2016,04,01,11,52,14.20
2016,04,01,11,53,14.20
2016,04,01,11,54,14.10
2016,04,01,11,55,14.10
2016,04,01,11,56,14.10
2016,04,01,11,57,14.10
2016,04,01,11,58,14.20
2016,04,01,11,59,14.20
2016,04,01,12,00,14.30
2016,04,01,12,01,14.40
2016,04,01,12,02,14.40
2016,04,01,12,03,14.50
2016,04,01,12,04,14.50
2016,04,01,12,05,14.60
2016,04,01,12,06,14.60
2016,04,01,12,07,14.70
2016,04,01,12,08,14.70
2016,04,01,12,09,14.70
2016,04,01,12,10,14.70
2016,04,01,12,11,14.70
2016,04,01,12,12,14.70
2016,04,01,12,13,14.70
2016,04,01,12,14,14.70
2016,04,01,12,15,14.70
2016,04,01,12,16,14.70
2016,04,01,12,17,14.70
2016,04,01,12,18,14.80
2016,04,01,12,19,14.80
2016,04,01,12,20,14.80
2016,04,01,12,21,14.80
2016,04,01,12,22,14.90
2016,04,01,12,23,15.00
2016,04,01,12,24,15.00
2016,04,01,12,25,15.00
2016,04,01,12,26,15.00
2016,04,01,12,27,15.00
2016,04,01,12,28,15.00
2016,04,01,12,29,15.10
2016,04,01,12,30,15.10
2016,04,01,12,31,15.20
2016,04,01,12,32,15.20
2016,04,01,12,33,15.20
2016,04,01,12,34,15.20
2016,04,01,12,35,15.30
2016,04,01,12,36,15.30
2016,04,01,12,37,15.30
2016,04,01,12,38,15.30
2016,04,01,12,39,15.30
2016,04,01,12,40,15.40
2016,04,01,12,41,15.30
2016,04,01,12,42,15.30
2016,04,01,12,43,15.30
2016,04,01,12,44,15.20
2016,04,01,12,45,15.20
2016,04,01,12,46,15.10
2016,04,01,12,47,15.00
2016,04,01,12,48,15.00
2016,04,01,12,49,14.90
2016,04,01,12,50,14.90
2016,04,01,12,51,14.80
2016,04,01,12,52,14.70
2016,04,01,12,53,14.60
2016,04,01,12,54,14.60
2016,04,01,12,55,14.60
2016,04,01,12,56,14.60
2016,04,01,12,57,14.70
2016,04,01,12,58,14.80
2016,04,01,12,59,14.80
2016,04,01,13,00,14.80
2016,04,01,13,01,14.90
2016,04,01,13,02,15.00
2016,04,01,13,03,15.00
2016,04,01,13,04,15.00
2016,04,01,13,05,15.00
2016,04,01,13,06,15.00
2016,04,01,13,07,15.00
2016,04,01,13,08,15.00
2016,04,01,13,09,15.00
2016,04,01,13,10,15.00
2016,04,01,13,11,15.00
2016,04,01,13,12,15.00
2016,04,01,13,13,15.00
2016,04,01,13,14,15.00
2016,04,01,13,15,15.00
2016,04,01,13,16,15.00
2016,04,01,13,17,15.00
2016,04,01,13,18,15.00
2016,04,01,13,19,15.00
2016,04,01,13,20,15.00
2016,04,01,13,21,15.10
2016,04,01,13,22,15.20
2016,04,01,13,23,15.10
2016,04,01,13,24,15.00
2016,04,01,13,25,15.00
2016,04,01,13,26,15.00
2016,04,01,13,27,15.00
2016,04,01,13,28,15.00
2016,04,01,13,29,15.00
2016,04,01,13,30,15.20
2016,04,01,13,31,15.20
2016,04,01,13,32,15.30
2016,04,01,13,33,15.40
2016,04,01,13,34,15.50
2016,04,01,13,35,15.60
2016,04,01,13,36,15.70
2016,04,01,13,37,15.70
2016,04,01,13,38,15.80
2016,04,01,13,39,15.90
2016,04,01,13,40,15.90
2016,04,01,13,41,16.00
2016,04,01,13,42,16.00
2016,04,01,13,43,15.90
2016,04,01,13,44,15.80
2016,04,01,13,45,15.80
2016,04,01,13,46,15.80
2016,04,01,13,47,15.80
2016,04,01,13,48,15.80
2016,04,01,13,49,15.80
2016,04,01,13,50,15.90
2016,04,01,13,51,15.80
2016,04,01,13,52,15.80
2016,04,01,13,53,15.80
2016,04,01,13,54,15.80
2016,04,01,13,55,15.80
2016,04,01,13,56,15.70
2016,04,01,13,57,15.70
2016,04,01,13,58,15.70
2016,04,01,13,59,15.70
2016,04,01,14,00,15.80
2016,04,01,14,01,15.80
2016,04,01,14,02,15.80
2016,04,01,14,03,15.80
2016,04,01,14,04,15.90
2016,04,01,14,05,15.90
2016,04,01,14,06,15.90
2016,04,01,14,07,15.90
2016,04,01,14,08,15.90
2016,04,01,14,09,15.90
2016,04,01,14,10,15.90
2016,04,01,14,11,15.90
2016,04,01,14,12,15.80
2016,04,01,14,13,15.80
2016,04,01,14,14,15.80
2016,04,01,14,15,15.80
2016,04,01,14,16,15.80
2016,04,01,14,17,15.90
2016,04,01,14,18,16.00
2016,04,01,14,19,16.10
2016,04,01,14,20,16.10
2016,04,01,14,21,16.20
2016,04,01,14,22,16.20
2016,04,01,14,23,16.20
2016,04,01,14,24,16.20
2016,04,01,14,25,16.20
2016,04,01,14,26,16.20
2016,04,01,14,27,16.20
2016,04,01,14,28,16.20
2016,04,01,14,29,16.30
2016,04,01,14,30,16.30
2016,04,01,14,31,16.30
2016,04,01,14,32,16.40
2016,04,01,14,33,16.40
2016,04,01,14,34,16.40
2016,04,01,14,35,16.40
2016,04,01,14,36,16.30
2016,04,01,14,37,16.30
2016,04,01,14,38,16.30
2016,04,01,14,39,16.30
2016,04,01,14,40,16.40
2016,04,01,14,41,16.40
2016,04,01,14,42,16.40
2016,04,01,14,43,16.30
2016,04,01,14,44,16.30
2016,04,01,14,45,16.30
2016,04,01,14,46,16.40
2016,04,01,14,47,16.40
2016,04,01,14,48,16.40
2016,04,01,14,49,16.30
2016,04,01,14,50,16.30
2016,04,01,14,51,16.30
2016,04,01,14,52,16.30
2016,04,01,14,53,16.40
2016,04,01,14,54,16.40
2016,04,01,14,55,16.40
2016,04,01,14,56,16.50
2016,04,01,14,57,16.50
2016,04,01,14,58,16.60
2016,04,01,14,59,16.60
2016,04,01,15,00,16.70
2016,04,01,15,01,16.70
2016,04,01,15,02,16.60
2016,04,01,15,03,16.70
2016,04,01,15,04,16.70
2016,04,01,15,05,16.70
2016,04,01,15,06,16.60
2016,04,01,15,07,16.60
2016,04,01,15,08,16.50
2016,04,01,15,09,16.40
2016,04,01,15,10,16.40
2016,04,01,15,11,16.40
2016,04,01,15,12,16.30
2016,04,01,15,13,16.20
2016,04,01,15,14,16.20
2016,04,01,15,15,16.20
2016,04,01,15,16,16.20
2016,04,01,15,17,16.30
2016,04,01,15,18,16.40
2016,04,01,15,19,16.50
2016,04,01,15,20,16.60
2016,04,01,15,21,16.60
2016,04,01,15,22,16.60
2016,04,01,15,23,16.60
2016,04,01,15,24,16.60
2016,04,01,15,25,16.60
2016,04,01,15,26,16.60
2016,04,01,15,27,16.70
2016,04,01,15,28,16.60
2016,04,01,15,29,16.60
2016,04,01,15,30,16.50
2016,04,01,15,31,16.50
2016,04,01,15,32,16.40
2016,04,01,15,33,16.40
2016,04,01,15,34,16.40
2016,04,01,15,35,16.40
2016,04,01,15,36,16.40
2016,04,01,15,37,16.40
2016,04,01,15,38,16.40
2016,04,01,15,39,16.40
2016,04,01,15,40,16.40
2016,04,01,15,41,16.40
2016,04,01,15,42,16.40
2016,04,01,15,43,16.40
2016,04,01,15,44,16.40
2016,04,01,15,45,16.40
2016,04,01,15,46,16.40
2016,04,01,15,47,16.40
2016,04,01,15,48,16.30
2016,04,01,15,49,16.20
2016,04,01,15,50,16.20
2016,04,01,15,51,16.30
2016,04,01,15,52,16.30
2016,04,01,15,53,16.40
2016,04,01,15,54,16.40
2016,04,01,15,55,16.50
2016,04,01,15,56,16.50
2016,04,01,15,57,16.60
2016,04,01,15,58,16.70
2016,04,01,15,59,16.80
2016,04,01,16,00,16.80
2016,04,01,16,01,16.90
2016,04,01,16,02,17.00
2016,04,01,16,03,17.10
2016,04,01,16,04,17.10
2016,04,01,16,05,17.10
2016,04,01,16,06,17.10
2016,04,01,16,07,17.00
2016,04,01,16,08,17.00
2016,04,01,16,09,17.00
2016,04,01,16,10,16.90
2016,04,01,16,11,17.00
2016,04,01,16,12,17.10
2016,04,01,16,13,17.10
2016,04,01,16,14,17.20
2016,04,01,16,15,17.20
2016,04,01,16,16,17.20
2016,04,01,16,17,17.20
2016,04,01,16,18,17.20
2016,04,01,16,19,17.30
2016,04,01,16,20,17.30
2016,04,01,16,21,17.40
2016,04,01,16,22,17.40
2016,04,01,16,23,17.40
2016,04,01,16,24,17.40
2016,04,01,16,25,17.40
2016,04,01,16,26,17.40
2016,04,01,16,27,17.40
2016,04,01,16,28,17.30
2016,04,01,16,29,17.30
2016,04,01,16,30,17.10
2016,04,01,16,31,17.00
2016,04,01,16,32,16.80
2016,04,01,16,33,16.60
2016,04,01,16,34,16.50
2016,04,01,16,35,16.50
2016,04,01,16,36,16.40
2016,04,01,16,37,16.30
2016,04,01,16,38,16.20
2016,04,01,16,39,16.20
2016,04,01,16,40,16.20
2016,04,01,16,41,16.20
2016,04,01,16,42,16.30
2016,04,01,16,43,16.40
2016,04,01,16,44,16.50
2016,04,01,16,45,16.60
2016,04,01,16,46,16.70
2016,04,01,16,47,16.80
2016,04,01,16,48,16.80
2016,04,01,16,49,16.90
2016,04,01,16,50,16.90
2016,04,01,16,51,16.90
2016,04,01,16,52,16.90
2016,04,01,16,53,17.00
2016,04,01,16,54,17.00
2016,04,01,16,55,17.10
2016,04,01,16,56,17.10
2016,04,01,16,57,17.20
2016,04,01,16,58,17.20
2016,04,01,16,59,17.20
2016,04,01,17,00,17.30
2016,04,01,17,01,17.30
2016,04,01,17,02,17.20
2016,04,01,17,03,17.20
2016,04,01,17,04,17.30
2016,04,01,17,05,17.30
2016,04,01,17,06,17.20
2016,04,01,17,07,17.20
2016,04,01,17,08,17.20
2016,04,01,17,09,17.30
2016,04,01,17,10,17.30
2016,04,01,17,11,17.40
2016,04,01,17,12,17.40
2016,04,01,17,13,17.50
2016,04,01,17,14,17.50
2016,04,01,17,15,17.50
2016,04,01,17,16,17.50
2016,04,01,17,17,17.40
2016,04,01,17,18,17.30
2016,04,01,17,19,17.20
2016,04,01,17,20,17.10
2016,04,01,17,21,17.00
2016,04,01,17,22,16.90
2016,04,01,17,23,16.90
2016,04,01,17,24,16.80
2016,04,01,17,25,16.80
2016,04,01,17,26,16.70
2016,04,01,17,27,16.60
2016,04,01,17,28,16.60
2016,04,01,17,29,16.50
2016,04,01,17,30,16.40
2016,04,01,17,31,16.40
2016,04,01,17,32,16.30
2016,04,01,17,33,16.20
2016,04,01,17,34,16.10
2016,04,01,17,35,16.00
2016,04,01,17,36,15.90
2016,04,01,17,37,15.90
2016,04,01,17,38,15.80
2016,04,01,17,39,15.80
2016,04,01,17,40,15.80
2016,04,01,17,41,15.80